COSMOS 2230

Satellite information

Favourite Embed

Satellite Type and Status

PAYLOADIN ORBIT

Key statistics

Satellite COSMOS 2230 at a glance.

Uptime

11863

Days in orbit

Revolutions

≈ 13.7

Per day

Orbit

LEO

Low Earth Orbit

Inclination

82.9

Latest

Satellite identification and parameters

Extended collection of information and parameters for COSMOS 2230.

Object identification

Identified? True

Debris? False

Object name: COSMOS 2230

International designator: 1993-001A

Object number (NORAD): 22307

Object ID (CCSDS): 22307

Country: COMMONWEALTH OF INDEPENDENT STATES (CIS)

Current information (Y/N): Y

RCS size: LARGE

Orbital parameters

Period: 104.815 minutes

Inclination: 82.9403 deg

SMA: 7363.941 km

Apoapsis: 1004.729 km

Periapsis: 966.884 km

RAAN: 184.8645 deg

Eccentricy: 0.0025696

Argument of periapsis: 52.4559 deg

Mean anomaly: 66.8627 deg

Mean motion: 13.73843538 rev/day

Mean motion (dot): 0.0000009 rev/day2

B* drag term: 0.000079537 1/REarth

Two-line elements (TLE)

Creation date: July 5, 2025, 5:45 p.m.

Reference frame: TEME

Reference center: EARTH

Epoch: July 5, 2025, 12:48 p.m. UTC

TLE line 0: 0 COSMOS 2230

TLE line 1: 1 22307U 93001A 25186.53337931 .00000090 00000-0 79537-4 0 9997

TLE line 2: 2 22307 82.9403 184.8645 0025696 52.4559 66.8627 13.73843538619484

Live tracking on map

Real-time ground track for satellite COSMOS 2230.

In-orbit conjunctions

A list of the most updated potential collisions computed for object COSMOS 2230.

Target Orbit TCA Probability of collision Miss distance Type
FENGYUN 1C DEB SSO 2024-11-03 22:24:41 0.0001659937 437.0 (m) DEBRIS
THOR ABLESTAR DEB LEO 2024-08-21 06:07:58 0.0001270134 350.0 (m) DEBRIS
SL-16 DEB LEO 2024-06-18 23:53:55 0.0001244579 415.0 (m) DEBRIS

Associated space launch

Civilian navigation satellite equivalent to the purely military Parus

COSMOS 2230 was lifted into orbit during the mission ‘Kosmos-3M | Tsikada 19’, on board a Kosmos-3M space rocket.

The launch took place on Jan. 12, 1993, 11:10 a.m. from 133/3 (133L).

For more information about the launch, click the button.

Launch to space Kosmos-3M | Tsikada 19
Kosmos-3M | Tsikada 19

Agency: N/A

Status: Launch Successful

Launch date: Jan. 12, 1993, 11:10 a.m. UTC

Rocket: Kosmos-3M

Launch pad: 133/3 (133L)

Location: Plesetsk Cosmodrome, Russian Federation

...

Latest news about this satellite

There are no fresh news available about this satellite. Check back as we update our databases every day.


Newsletter sign-up

Weekly statistics, charts and insights to help you stay on top of the space industry.